Time,TemperatureF,DewpointF,PressureIn,WindDirection,WindDirectionDegrees,WindSpeedMPH,WindSpeedGustMPH,Humidity,HourlyPrecipIn,Conditions,Clouds,dailyrainin,SoftwareType,DateUTC
2013-08-01 00:02:00,56.0,55.0,30.01,WSW,257,0.0,0.0,95,0.00,,,0.00,,2013-08-01 07:02:00,
2013-08-01 00:11:00,56.0,55.0,30.00,WSW,257,0.0,1.0,96,0.00,,,0.00,,2013-08-01 07:11:00,
2013-08-01 00:22:00,56.0,55.0,30.01,WSW,257,1.0,3.0,96,0.00,,,0.00,,2013-08-01 07:22:00,
2013-08-01 00:32:00,56.0,55.0,30.00,WSW,257,0.0,2.0,97,0.00,,,0.00,,2013-08-01 07:32:00,
2013-08-01 00:43:00,56.0,55.0,30.00,WSW,257,0.0,0.0,97,0.00,,,0.00,,2013-08-01 07:43:00,
2013-08-01 00:52:00,56.0,55.0,30.00,WSW,257,0.0,0.0,97,0.00,,,0.00,,2013-08-01 07:52:00,
2013-08-01 01:12:00,56.0,55.0,29.99,WSW,257,0.0,0.0,97,0.00,,,0.00,,2013-08-01 08:12:00,
2013-08-01 01:32:00,56.0,55.0,29.99,WSW,257,0.0,1.0,98,0.00,,,0.00,,2013-08-01 08:32:00,
2013-08-01 01:53:00,56.0,55.0,29.98,WSW,256,0.0,0.0,98,0.00,,,0.00,,2013-08-01 08:53:00,
2013-08-01 02:02:00,56.0,55.0,29.98,WSW,256,0.0,0.0,98,0.00,,,0.00,,2013-08-01 09:02:00,
2013-08-01 02:12:00,56.0,55.0,29.98,WSW,256,0.0,0.0,98,0.00,,,0.00,,2013-08-01 09:12:00,
2013-08-01 02:53:00,55.0,54.0,29.99,WSW,256,0.0,0.0,98,0.00,,,0.00,,2013-08-01 09:53:00,
2013-08-01 03:33:00,56.0,55.0,29.98,WSW,257,0.0,0.0,98,0.00,,,0.00,,2013-08-01 10:33:00,
2013-08-01 03:44:00,56.0,55.0,29.98,WSW,257,0.0,0.0,98,0.00,,,0.00,,2013-08-01 10:44:00,
2013-08-01 03:53:00,56.0,55.0,29.98,WSW,256,0.0,0.0,98,0.00,,,0.00,,2013-08-01 10:53:00,
2013-08-01 04:02:00,55.0,55.0,29.98,WSW,256,0.0,0.0,99,0.00,,,0.00,,2013-08-01 11:02:00,
2013-08-01 04:12:00,55.0,55.0,29.98,WSW,257,0.0,0.0,99,0.00,,,0.00,,2013-08-01 11:12:00,
2013-08-01 04:53:00,55.0,55.0,29.98,WSW,256,0.0,0.0,99,0.00,,,0.00,,2013-08-01 11:53:00,
2013-08-01 05:12:00,55.0,55.0,29.97,WSW,257,0.0,0.0,99,0.00,,,0.00,,2013-08-01 12:12:00,
2013-08-01 05:22:00,55.0,55.0,29.97,WSW,257,0.0,0.0,99,0.00,,,0.00,,2013-08-01 12:22:00,
2013-08-01 05:53:00,55.0,55.0,29.98,WSW,257,0.0,0.0,99,0.00,,,0.00,,2013-08-01 12:53:00,
2013-08-01 06:12:00,55.0,55.0,29.98,WSW,256,0.0,0.0,99,0.00,,,0.00,,2013-08-01 13:12:00,
2013-08-01 06:22:00,55.0,55.0,29.99,WSW,257,0.0,0.0,99,0.01,,,0.01,,2013-08-01 13:22:00,
2013-08-01 06:53:00,55.0,55.0,30.00,WSW,257,0.0,0.0,99,0.01,,,0.01,,2013-08-01 13:53:00,
2013-08-01 07:02:00,55.0,55.0,30.01,WSW,257,0.0,0.0,99,0.01,,,0.01,,2013-08-01 14:02:00,
2013-08-01 08:12:00,55.0,55.0,30.02,WSW,257,0.0,1.0,99,0.00,,,0.01,,2013-08-01 15:12:00,
2013-08-01 09:32:00,58.0,58.0,30.02,WSW,257,0.0,1.0,99,0.00,,,0.01,,2013-08-01 16:32:00,
2013-08-01 09:43:00,58.0,57.0,30.02,WSW,257,0.0,2.0,98,0.00,,,0.01,,2013-08-01 16:43:00,
2013-08-01 09:52:00,59.0,58.0,30.01,WSW,257,0.0,4.0,97,0.00,,,0.01,,2013-08-01 16:52:00,
2013-08-01 10:02:00,59.0,58.0,30.01,WSW,257,1.0,4.0,96,0.00,,,0.01,,2013-08-01 17:02:00,
2013-08-01 10:12:00,60.0,58.0,30.01,WSW,257,0.0,4.0,94,0.00,,,0.01,,2013-08-01 17:12:00,
2013-08-01 10:22:00,61.0,58.0,30.01,WSW,257,2.0,7.0,91,0.00,,,0.01,,2013-08-01 17:22:00,
2013-08-01 10:33:00,62.0,59.0,30.02,WSW,256,2.0,7.0,91,0.00,,,0.01,,2013-08-01 17:33:00,
2013-08-01 10:43:00,62.0,59.0,30.02,WSW,257,2.0,7.0,90,0.00,,,0.01,,2013-08-01 17:43:00,
2013-08-01 10:53:00,64.0,60.0,30.02,WSW,257,1.0,7.0,86,0.00,,,0.01,,2013-08-01 17:53:00,
2013-08-01 11:02:00,65.0,60.0,30.02,SW,221,4.0,7.0,83,0.00,,,0.01,,2013-08-01 18:02:00,
2013-08-01 11:12:00,66.0,60.0,30.01,SW,222,3.0,9.0,80,0.00,,,0.01,,2013-08-01 18:12:00,
2013-08-01 11:22:00,67.0,60.0,30.01,SW,214,1.0,9.0,79,0.00,,,0.01,,2013-08-01 18:22:00,
2013-08-01 11:53:00,70.0,61.0,30.00,SW,218,5.0,8.0,72,0.00,,,0.01,,2013-08-01 18:53:00,
2013-08-01 12:02:00,70.0,61.0,30.00,WSW,241,3.0,10.0,73,0.00,,,0.01,,2013-08-01 19:02:00,
2013-08-01 12:43:00,74.0,61.0,29.99,South,177,4.0,10.0,65,0.00,,,0.01,,2013-08-01 19:43:00,
2013-08-01 13:32:00,78.0,62.0,29.99,NNW,336,1.0,10.0,58,0.00,,,0.01,,2013-08-01 20:32:00,
2013-08-01 13:52:00,77.0,62.0,29.98,South,188,2.0,9.0,59,0.00,,,0.01,,2013-08-01 20:52:00,
2013-08-01 14:02:00,77.0,62.0,29.97,WSW,240,2.0,8.0,59,0.00,,,0.01,,2013-08-01 21:02:00,
2013-08-01 14:11:00,78.0,62.0,29.96,WSW,238,1.0,8.0,58,0.00,,,0.01,,2013-08-01 21:11:00,
2013-08-01 14:33:00,77.0,61.0,29.95,SW,235,2.0,8.0,58,0.00,,,0.01,,2013-08-01 21:33:00,
2013-08-01 14:52:00,78.0,61.0,29.93,South,190,2.0,7.0,56,0.00,,,0.01,,2013-08-01 21:52:00,
2013-08-01 15:02:00,79.0,62.0,29.93,WSW,249,1.0,7.0,56,0.00,,,0.01,,2013-08-01 22:02:00,
2013-08-01 15:32:00,78.0,62.0,29.92,SSW,195,3.0,10.0,57,0.00,,,0.01,,2013-08-01 22:32:00,
2013-08-01 15:43:00,78.0,62.0,29.92,WSW,253,3.0,9.0,57,0.00,,,0.01,,2013-08-01 22:43:00,
2013-08-01 16:12:00,79.0,61.0,29.92,SSW,202,1.0,8.0,55,0.00,,,0.01,,2013-08-01 23:12:00,
2013-08-01 16:22:00,79.0,61.0,29.91,SW,228,1.0,6.0,54,0.00,,,0.01,,2013-08-01 23:22:00,
2013-08-01 16:43:00,79.0,61.0,29.91,SSW,213,2.0,8.0,54,0.00,,,0.01,,2013-08-01 23:43:00,
2013-08-01 16:52:00,79.0,61.0,29.90,SSW,199,2.0,9.0,55,0.00,,,0.01,,2013-08-01 23:52:00,
2013-08-01 17:02:00,78.0,61.0,29.90,West,263,2.0,9.0,55,0.00,,,0.01,,2013-08-02 00:02:00,
2013-08-01 17:12:00,78.0,61.0,29.90,SW,227,3.0,7.0,56,0.00,,,0.01,,2013-08-02 00:12:00,
2013-08-01 17:32:00,78.0,61.0,29.90,SSW,199,0.0,9.0,56,0.00,,,0.01,,2013-08-02 00:32:00,
2013-08-01 17:43:00,77.0,60.0,29.89,SW,215,1.0,7.0,56,0.00,,,0.01,,2013-08-02 00:43:00,
2013-08-01 17:52:00,77.0,60.0,29.89,SW,232,2.0,8.0,56,0.00,,,0.01,,2013-08-02 00:52:00,
2013-08-01 18:02:00,77.0,61.0,29.88,WSW,257,4.0,10.0,57,0.00,,,0.01,,2013-08-02 01:02:00,
2013-08-01 18:12:00,75.0,60.0,29.88,WSW,249,2.0,9.0,59,0.00,,,0.01,,2013-08-02 01:12:00,
2013-08-01 18:52:00,75.0,60.0,29.89,SW,223,2.0,6.0,60,0.00,,,0.01,,2013-08-02 01:52:00,
2013-08-01 19:02:00,74.0,60.0,29.89,SW,225,0.0,8.0,61,0.00,,,0.01,,2013-08-02 02:02:00,
2013-08-01 19:12:00,74.0,60.0,29.89,SW,226,0.0,4.0,62,0.00,,,0.01,,2013-08-02 02:12:00,
2013-08-01 19:33:00,71.0,59.0,29.89,WSW,254,1.0,5.0,67,0.00,,,0.01,,2013-08-02 02:33:00,
2013-08-01 19:44:00,70.0,59.0,29.90,WSW,257,1.0,4.0,68,0.00,,,0.01,,2013-08-02 02:44:00,
2013-08-01 19:52:00,69.0,59.0,29.90,West,259,1.0,4.0,71,0.00,,,0.01,,2013-08-02 02:52:00,
2013-08-01 20:02:00,68.0,59.0,29.90,West,259,0.0,1.0,73,0.00,,,0.01,,2013-08-02 03:02:00,
2013-08-01 20:12:00,67.0,58.0,29.90,West,259,0.0,3.0,74,0.00,,,0.01,,2013-08-02 03:12:00,
2013-08-01 20:32:00,66.0,58.0,29.90,West,259,0.0,0.0,76,0.00,,,0.01,,2013-08-02 03:32:00,
2013-08-01 20:42:00,65.0,58.0,29.90,West,259,0.0,0.0,77,0.00,,,0.01,,2013-08-02 03:42:00,
2013-08-01 21:02:00,65.0,58.0,29.90,West,259,0.0,0.0,78,0.00,,,0.01,,2013-08-02 04:02:00,
2013-08-01 21:12:00,65.0,58.0,29.91,West,259,0.0,0.0,79,0.00,,,0.01,,2013-08-02 04:12:00,
2013-08-01 21:21:00,65.0,58.0,29.91,West,259,0.0,0.0,79,0.00,,,0.01,,2013-08-02 04:21:00,
2013-08-01 21:43:00,63.0,57.0,29.91,West,259,0.0,0.0,82,0.00,,,0.01,,2013-08-02 04:43:00,
2013-08-01 21:53:00,63.0,58.0,29.91,West,259,0.0,0.0,83,0.00,,,0.01,,2013-08-02 04:53:00,
2013-08-01 22:02:00,62.0,57.0,29.91,West,259,0.0,0.0,84,0.00,,,0.01,,2013-08-02 05:02:00,
2013-08-01 22:11:00,62.0,57.0,29.92,West,259,0.0,0.0,84,0.00,,,0.01,,2013-08-02 05:11:00,
2013-08-01 22:32:00,62.0,58.0,29.92,West,259,0.0,0.0,86,0.00,,,0.01,,2013-08-02 05:32:00,
2013-08-01 22:43:00,61.0,57.0,29.92,West,259,0.0,0.0,88,0.00,,,0.01,,2013-08-02 05:43:00,
2013-08-01 22:52:00,61.0,57.0,29.92,West,259,0.0,0.0,88,0.00,,,0.01,,2013-08-02 05:52:00,
2013-08-01 23:02:00,61.0,58.0,29.92,West,259,0.0,0.0,90,0.00,,,0.01,,2013-08-02 06:02:00,
2013-08-01 23:12:00,61.0,58.0,29.92,West,259,0.0,0.0,90,0.00,,,0.01,,2013-08-02 06:12:00,
2013-08-01 23:33:00,61.0,58.0,29.92,West,259,0.0,0.0,90,0.00,,,0.01,,2013-08-02 06:33:00,
2013-08-01 23:43:00,60.0,57.0,29.92,West,259,0.0,0.0,90,0.00,,,0.01,,2013-08-02 06:43:00,
2013-08-01 23:52:00,60.0,57.0,29.92,West,259,0.0,0.0,90,0.00,,,0.01,,2013-08-02 06:52:00,